TimeCDT,TemperatureF,Dew PointF,Humidity,Sea Level PressureIn,VisibilityMPH,Wind Direction,Wind SpeedMPH,Gust SpeedMPH,PrecipitationIn,Events,Conditions,WindDirDegrees,DateUTC
12:54 AM,48.9,46.0,90,30.12,10.0,NW,3.5,-,N/A,,Clear,320,2013-06-14 05:54:00
1:54 AM,46.9,44.1,90,30.13,10.0,Variable,3.5,-,N/A,,Clear,0,2013-06-14 06:54:00
2:54 AM,45.0,43.0,93,30.12,10.0,NNW,3.5,-,N/A,,Clear,340,2013-06-14 07:54:00
3:54 AM,45.0,42.1,90,30.14,10.0,Calm,Calm,-,N/A,,Clear,0,2013-06-14 08:54:00
4:54 AM,44.1,39.9,85,30.15,10.0,Calm,Calm,-,N/A,,Clear,0,2013-06-14 09:54:00
5:54 AM,44.1,41.0,89,30.17,10.0,Calm,Calm,-,N/A,,Clear,0,2013-06-14 10:54:00
6:54 AM,50.0,45.0,83,30.16,10.0,NNW,3.5,-,N/A,,Clear,330,2013-06-14 11:54:00
7:54 AM,55.9,44.1,64,30.17,10.0,North,4.6,-,N/A,,Clear,360,2013-06-14 12:54:00
8:54 AM,61.0,41.0,48,30.18,10.0,Calm,Calm,-,N/A,,Clear,0,2013-06-14 13:54:00
9:54 AM,64.9,42.1,43,30.17,10.0,Calm,Calm,-,N/A,,Clear,0,2013-06-14 14:54:00
10:54 AM,69.1,39.9,35,30.15,10.0,NE,6.9,-,N/A,,Clear,50,2013-06-14 15:54:00
11:54 AM,70.0,37.0,30,30.13,10.0,Variable,3.5,-,N/A,,Clear,0,2013-06-14 16:54:00
12:54 PM,72.0,36.0,27,30.11,10.0,Calm,Calm,-,N/A,,Clear,0,2013-06-14 17:54:00
1:54 PM,73.9,33.1,22,30.10,10.0,Calm,Calm,-,N/A,,Clear,0,2013-06-14 18:54:00
2:54 PM,75.9,37.0,24,30.08,10.0,Variable,4.6,-,N/A,,Clear,0,2013-06-14 19:54:00
3:54 PM,75.9,36.0,23,30.07,10.0,Variable,3.5,-,N/A,,Clear,0,2013-06-14 20:54:00
4:54 PM,77.0,39.9,26,30.04,10.0,SE,6.9,-,N/A,,Clear,130,2013-06-14 21:54:00
5:54 PM,75.0,43.0,32,30.02,10.0,Calm,Calm,-,N/A,,Clear,0,2013-06-14 22:54:00
6:54 PM,72.0,46.0,40,30.02,10.0,SSE,11.5,-,N/A,,Clear,150,2013-06-14 23:54:00
7:54 PM,68.0,44.1,42,30.02,10.0,SSE,8.1,-,N/A,,Clear,150,2013-06-15 00:54:00
8:54 PM,64.9,43.0,45,30.04,10.0,SE,5.8,-,N/A,,Clear,130,2013-06-15 01:54:00
9:54 PM,63.0,42.1,46,30.03,10.0,SE,6.9,-,N/A,,Clear,140,2013-06-15 02:54:00
10:54 PM,62.1,43.0,50,30.01,10.0,SSE,4.6,-,N/A,,Partly Cloudy,150,2013-06-15 03:54:00
11:54 PM,60.1,44.1,55,30.00,10.0,ESE,3.5,-,N/A,,Mostly Cloudy,110,2013-06-15 04:54:00